Location: Holkham
(52.9500°N, 0.8167°E)
Time: 04:37:44
(UTC+00:00)

Cosmos 1346 Rocket - Pass Details

Date: 19 May 2025
Orbit: 485 x 500 km, 81.2° (Epoch: 13 June)

Event Time Altitude Azimuth Distance (km) Brightness Sun altitude
Rises 21:03:08 0° 344° (NNW) 2,591 7.7 -8.3°
Reaches altitude 10° 21:05:17 10° 341° (NNW) 1,700 6.6 -8.5°
Maximum altitude 21:08:57 61° 261° (W) 565 3.0 -8.9°
Drops below altitude 10° 21:12:35 10° 181° (S) 1,676 4.8 -9.2°
Enters shadow 21:13:04 - 180° (S) 1,876 5.1 -9.3°
